Homestead, FL

10:47 AM EDT on August 26, 2016 (GMT -0400)
Dade County-Homestead Regional

Weather History for KHST - August, 2013

Change the Weather History Date:

Tuesday, August 20, 2013

  Actual Average Record
Temperature  
Mean Temperature 81 °F -  
Max Temperature 88 °F 89 °F 97 °F (1952)
Min Temperature 75 °F 72 °F 66 °F (1934)
Cooling Degree Days 16    
Growing Degree Days 31 (Base 50)    
Moisture  
Dew Point 75 °F    
Average Humidity 81    
Maximum Humidity 94    
Minimum Humidity 64    
Precipitation  
Precipitation 0.23 in - - ()
Sea Level Pressure  
Sea Level Pressure 30.03 in    
Wind  
Wind Speed 8 mph (East)    
Max Wind Speed 14 mph    
Max Gust Speed 18 mph    
Visibility 9 miles    
Events Rain , Thunderstorm    
Averages and records for this station are not official NWS values.
T = Trace of Precipitation, MM = Missing Value Source: NWS Daily Summary

Daily Weather History Graph

Daily Weather History Graph

Search for Another Location

Airport or City:

Trip Planner

Search our weather history database for the weather conditions in past years. The results will help you decide how hot, cold, wet, or windy it might be!

Date:

Astronomy

Aug. 20, 2013 Rise Set
Actual Time 6:57 AM EDT 7:52 PM EDT
Civil Twilight 6:33 AM EDT 8:15 PM EDT
Nautical Twilight 6:05 AM EDT 8:43 PM EDT
Astronomical Twilight 5:36 AM EDT 9:12 PM EDT
Moon 7:28 PM EDT (8/20) 6:22 AM EDT (8/20)
Length of Visible Light 13h 42m
Length of Day
12h 54m
Full, 100% of the Moon is Illuminated
Aug 20
Full
Aug 20
Full
Aug 28
Last Quarter
Sep 5
New
Sep 12
First Quarter

Hourly Weather History & Observations

Time (EDT) Temp. Heat Index Dew Point Humidity Pressure Visibility Wind Dir Wind Speed Gust Speed Precip Events Conditions
12:52 AM 77.0 °F - 73.4 °F 89% 30.04 in 10.0 mi SSE 9.2 mph - N/A Rain , Thunderstorm Light Thunderstorms and Rain
12:58 AM 77.0 °F - 73.4 °F 89% 30.04 in 9.0 mi South 6.9 mph - 0.00 in Rain , Thunderstorm Light Thunderstorms and Rain
1:03 AM 77.0 °F - 73.4 °F 89% 30.04 in 7.0 mi ESE 6.9 mph - N/A Rain , Thunderstorm Thunderstorms and Rain
1:08 AM 75.2 °F - 73.4 °F 94% 30.04 in 3.0 mi ENE 10.4 mph 17.3 mph N/A Rain , Thunderstorm Heavy Thunderstorms and Rain
1:13 AM 75.2 °F - 73.4 °F 94% 30.04 in 3.0 mi NE 6.9 mph 13.8 mph N/A Rain , Thunderstorm Heavy Thunderstorms and Rain
1:18 AM 77.0 °F - 69.8 °F 78% 30.03 in 4.0 mi East 6.9 mph - N/A Rain Light Rain
1:23 AM 77.0 °F - 69.8 °F 78% 30.03 in 10.0 mi East 8.1 mph - N/A   Scattered Clouds
1:58 AM 77.0 °F - 73.6 °F 89% 30.01 in 10.0 mi ESE 3.5 mph - 0.23 in   Clear
2:32 AM 77.0 °F - 73.4 °F 89% 30.01 in 10.0 mi ESE 4.6 mph - N/A Rain , Thunderstorm Light Thunderstorms and Rain
2:41 AM 77.0 °F - 73.4 °F 89% 30.01 in 10.0 mi SE 5.8 mph - N/A Thunderstorm Thunderstorm
2:52 AM 77.0 °F - 73.4 °F 89% 30.01 in 10.0 mi East 3.5 mph - N/A Thunderstorm Partly Cloudy
2:58 AM 77.0 °F - 72.5 °F 86% 30.01 in 10.0 mi East 4.6 mph - 0.00 in Thunderstorm Partly Cloudy
3:58 AM 77.4 °F - 74.7 °F 91% 30.00 in 10.0 mi North 3.5 mph - N/A   Clear
4:58 AM 78.4 °F - 74.7 °F 88% 30.00 in 10.0 mi ENE 4.6 mph - N/A   Clear
5:58 AM 78.8 °F - 75.2 °F 89% 30.00 in 10.0 mi NE 5.8 mph - N/A   Scattered Clouds
6:58 AM 78.8 °F - 75.2 °F 89% 30.00 in 10.0 mi Calm Calm - N/A   Scattered Clouds
7:58 AM 77.5 °F - 75.7 °F 94% 30.03 in 10.0 mi Calm Calm - N/A   Clear
8:58 AM 78.4 °F - 75.0 °F 89% 30.03 in 10.0 mi WSW 3.5 mph - N/A   Mostly Cloudy
9:58 AM 84.4 °F 93.9 °F 76.6 °F 77% 30.04 in 10.0 mi East 9.2 mph - N/A   Mostly Cloudy
10:55 AM 86.0 °F 95.1 °F 75.2 °F 70% 30.05 in 10.0 mi East 10.4 mph - N/A   Clear
11:55 AM 86.5 °F 96.9 °F 76.1 °F 71% 30.06 in 10.0 mi East 13.8 mph - N/A   Clear
12:58 PM 87.6 °F 96.2 °F 74.1 °F 64% 30.05 in 10.0 mi East 10.4 mph - 0.00 in   Scattered Clouds
1:58 PM 87.8 °F 98.1 °F 75.7 °F 67% 30.05 in 10.0 mi East 12.7 mph 18.4 mph N/A   Partly Cloudy
2:58 PM 87.6 °F 98.2 °F 75.9 °F 68% 30.03 in 10.0 mi East 13.8 mph - N/A   Partly Cloudy
3:50 PM 87.8 °F 99.7 °F 77.0 °F 70% 30.00 in 10.0 mi East 12.7 mph - N/A   Light Drizzle
3:58 PM 86.7 °F 96.9 °F 75.9 °F 70% 30.01 in 10.0 mi East 11.5 mph - 0.00 in   Light Drizzle
3:59 PM 86.0 °F 95.1 °F 75.2 °F 70% 30.00 in 10.0 mi ENE 10.4 mph - N/A   Clear
4:58 PM 86.0 °F 94.6 °F 74.7 °F 69% 30.02 in 10.0 mi East 12.7 mph - 0.00 in   Partly Cloudy
5:58 PM 86.5 °F 95.9 °F 75.2 °F 69% 30.00 in 10.0 mi East 10.4 mph - N/A   Clear
6:58 PM 83.8 °F 93.5 °F 77.2 °F 80% 29.99 in 10.0 mi ENE 8.1 mph - N/A   Partly Cloudy
7:58 PM 83.7 °F 91.7 °F 75.6 °F 76% 30.01 in 10.0 mi East 6.9 mph - N/A   Clear
8:58 PM 83.1 °F 91.3 °F 76.1 °F 79% 30.03 in 10.0 mi East 6.9 mph - N/A   Clear
9:58 PM 83.3 °F 91.4 °F 75.7 °F 78% 30.04 in 10.0 mi ENE 6.9 mph - N/A   Clear
10:58 PM 83.1 °F 91.6 °F 76.3 °F 80% 30.05 in 10.0 mi East 6.9 mph - N/A   Clear
11:18 PM 82.4 °F 89.5 °F 75.2 °F 79% 30.05 in 10.0 mi East 13.8 mph - N/A Rain Light Rain
11:31 PM 80.6 °F 87.1 °F 77.0 °F 89% 30.06 in 10.0 mi East 8.1 mph - N/A   Clear
11:58 PM 80.2 °F 85.8 °F 75.9 °F 87% 30.06 in 10.0 mi NE 4.6 mph - 0.00 in   Clear